TimeMST,TemperatureF,Dew PointF,Humidity,Sea Level PressureIn,VisibilityMPH,Wind Direction,Wind SpeedMPH,Gust SpeedMPH,PrecipitationIn,Events,Conditions,WindDirDegrees,DateUTC
12:56 AM,57.9,21.9,25,29.91,-9999.0,SSW,5.8,-,N/A,,Clear,210,2012-11-01 07:56:00
1:56 AM,57.0,21.9,26,29.91,-9999.0,SW,5.8,-,N/A,,Clear,220,2012-11-01 08:56:00
2:56 AM,54.0,23.0,30,29.91,-9999.0,SSW,3.5,-,N/A,,Clear,200,2012-11-01 09:56:00
3:56 AM,50.0,23.0,35,29.92,-9999.0,Calm,Calm,-,N/A,,Clear,0,2012-11-01 10:56:00
4:56 AM,55.9,21.9,27,29.91,-9999.0,Calm,Calm,-,N/A,,Clear,0,2012-11-01 11:56:00
5:56 AM,54.0,21.9,29,29.94,-9999.0,SSW,3.5,-,N/A,,Clear,200,2012-11-01 12:56:00
6:56 AM,55.9,21.0,26,29.96,-9999.0,Calm,Calm,-,N/A,,Clear,0,2012-11-01 13:56:00
7:56 AM,55.9,25.0,30,29.97,-9999.0,Calm,Calm,-,N/A,,Clear,0,2012-11-01 14:56:00
8:56 AM,69.1,24.1,18,29.94,-9999.0,ENE,3.5,-,N/A,,Clear,70,2012-11-01 15:56:00
9:56 AM,72.0,19.0,13,29.93,-9999.0,East,6.9,-,N/A,,Clear,90,2012-11-01 16:56:00
10:56 AM,75.0,19.9,13,29.91,-9999.0,East,8.1,-,N/A,,Clear,90,2012-11-01 17:56:00
11:56 AM,77.0,21.9,13,29.88,-9999.0,Calm,Calm,-,N/A,,Clear,0,2012-11-01 18:56:00
12:56 PM,77.0,21.0,12,29.85,-9999.0,SW,12.7,20.7,N/A,,Clear,230,2012-11-01 19:56:00
1:56 PM,78.1,23.0,13,29.82,-9999.0,WSW,11.5,-,N/A,,Clear,240,2012-11-01 20:56:00
2:56 PM,77.0,21.9,13,29.83,-9999.0,WSW,10.4,19.6,N/A,,Clear,240,2012-11-01 21:56:00
3:56 PM,75.9,23.0,14,29.83,-9999.0,West,9.2,-,N/A,,Unknown,270,2012-11-01 22:56:00
4:56 PM,73.9,25.0,16,29.82,-9999.0,SW,6.9,-,N/A,,Unknown,230,2012-11-01 23:56:00
5:56 PM,66.9,27.0,22,29.85,-9999.0,SW,10.4,-,N/A,,Unknown,230,2012-11-02 00:56:00
6:57 PM,63.0,27.0,26,29.89,-9999.0,SW,10.4,-,N/A,,Unknown,230,2012-11-02 01:57:00
7:56 PM,57.0,27.0,32,29.91,-9999.0,West,8.1,-,N/A,,Unknown,270,2012-11-02 02:56:00
8:56 PM,57.0,27.0,32,29.89,-9999.0,WSW,11.5,-,N/A,,Clear,250,2012-11-02 03:56:00
9:56 PM,55.0,28.0,35,29.88,-9999.0,North,-9999.0,-,N/A,,Clear,0,2012-11-02 04:56:00
10:56 PM,55.9,28.0,34,29.87,-9999.0,WSW,11.5,-,N/A,,Clear,240,2012-11-02 05:56:00
11:56 PM,55.9,28.0,34,29.87,-9999.0,SW,9.2,-,N/A,,Clear,230,2012-11-02 06:56:00